period_start,C,m1,H,J0,J1,J2,J3,J4,J5,JA,JB,JC,JD,JJ,JK,JN,#
2016-11-27 00:02:05,0.19,1.19,0.00,21.14,26.00,29.63,14.86,49.59,1026.33,2031.99,3022.20,2812.84,3192.95,600.09,605.59,7.20,0000 0000 0000 0000 000000
2016-11-27 00:07:06,0.20,1.20,0.00,21.13,26.00,29.62,14.88,49.74,1026.35,2031.99,3018.37,2810.08,3189.79,600.22,605.79,7.25,0000 0000 0000 0000 000000
2016-11-27 00:12:08,0.21,1.21,0.00,21.13,26.00,29.59,14.82,49.58,1026.23,2032.00,3014.46,2807.27,3186.56,600.03,605.67,7.30,0000 0000 0000 0000 000000
2016-11-27 00:17:09,0.20,1.22,0.00,21.12,25.99,29.59,14.81,49.52,1026.19,2032.00,3010.63,2804.53,3183.43,599.92,605.38,7.35,0000 0000 0000 0000 000000
2016-11-27 00:22:10,0.20,1.23,0.00,21.12,25.97,29.60,14.82,49.33,1026.24,2032.00,3006.85,2801.70,3180.20,600.03,605.55,7.40,0000 0000 0000 0000 000000
2016-11-27 00:27:12,0.20,1.24,0.00,21.12,25.97,29.57,14.78,49.20,1026.34,2032.01,3003.04,2798.99,3177.10,599.74,605.48,7.45,0000 0000 0000 0000 000000
2016-11-27 00:32:13,0.20,1.26,0.00,21.10,25.97,29.60,14.83,49.40,1026.33,2032.00,2999.29,2796.27,3173.97,599.98,605.54,7.50,0000 0000 0000 0000 000000
2016-11-27 00:37:15,0.20,1.26,0.00,21.11,25.97,29.62,14.82,49.51,1026.34,2032.01,2995.65,2793.62,3171.01,599.96,605.42,7.55,0000 0000 0000 0000 000000
2016-11-27 00:42:16,0.20,1.28,0.00,21.09,25.96,29.60,14.72,49.48,1026.36,2032.00,2991.84,2790.88,3167.88,599.72,605.37,7.60,0000 0000 0000 0000 000000
2016-11-27 00:47:17,0.21,1.29,0.00,21.09,25.95,29.60,14.81,49.41,1026.37,2032.01,2987.98,2788.09,3164.67,599.97,605.63,7.65,0000 0000 0000 0000 000000
2016-11-27 00:52:18,0.20,1.30,0.00,21.09,25.95,29.57,14.76,49.38,1026.38,2032.00,2984.19,2785.36,3161.51,599.90,605.58,7.70,0000 0000 0000 0000 000000
2016-11-27 00:57:19,0.21,1.31,0.00,21.07,25.94,29.58,14.82,49.53,1026.38,2032.00,2980.36,2782.57,3158.35,599.90,605.60,7.75,0000 0000 0000 0000 000000
2016-11-27 01:02:20,0.21,1.32,0.00,21.09,25.93,29.56,14.81,49.50,1026.38,2032.00,2976.55,2779.80,3155.19,599.81,605.48,7.80,0000 0000 0000 0000 000000
2016-11-27 01:07:22,0.21,1.33,0.00,21.08,25.92,29.52,14.81,49.39,1026.38,2032.01,2972.64,2776.99,3151.98,599.96,605.66,7.85,0000 0000 0000 0000 000000
2016-11-27 01:12:23,0.20,1.34,0.00,21.06,25.92,29.56,14.85,49.17,1026.39,2032.00,2968.89,2774.24,3148.83,599.88,605.65,7.90,0000 0000 0000 0000 000000
2016-11-27 01:17:24,0.20,1.35,0.00,21.03,25.92,29.56,14.80,49.31,1026.39,2032.01,2965.16,2771.59,3145.83,599.75,605.44,7.95,0000 0000 0000 0000 000000
2016-11-27 01:22:26,0.21,1.36,0.00,21.05,25.92,29.54,14.81,49.24,1026.39,2032.03,2961.39,2768.84,3142.65,600.02,605.71,8.00,0000 0000 0000 0000 000000
2016-11-27 01:27:27,0.21,1.37,0.00,21.03,25.92,29.54,14.83,49.14,1026.39,2032.01,2957.59,2766.07,3139.44,599.92,605.69,8.05,0000 0000 0000 0000 000000
2016-11-27 01:32:29,0.21,1.38,0.00,21.01,25.92,29.55,14.92,49.33,1026.38,2032.01,2953.81,2763.32,3136.31,600.21,606.21,8.10,0000 0000 0000 0000 000000
2016-11-27 01:37:30,0.20,1.39,0.00,21.03,25.90,29.50,14.94,49.26,1026.38,2032.01,2950.06,2760.61,3133.42,600.44,606.18,8.15,0000 0000 0000 0000 000000
2016-11-27 01:42:32,0.21,1.40,0.00,21.03,25.90,29.51,14.84,49.35,1026.38,2032.02,2946.26,2757.88,3130.31,600.00,605.80,8.20,0000 0000 0000 0000 000000
2016-11-27 01:47:33,0.20,1.41,0.00,21.01,25.90,29.53,14.86,49.50,1026.39,2032.01,2942.72,2755.15,3127.10,600.14,605.98,8.25,0000 0000 0000 0000 000000
2016-11-27 01:52:34,0.20,1.42,0.00,21.00,25.90,29.49,14.87,49.43,1026.40,2032.00,2939.14,2752.50,3123.98,600.00,605.81,8.30,0000 0000 0000 0000 000000
2016-11-27 01:57:36,0.20,1.43,0.00,21.01,25.89,29.52,14.77,49.47,1026.40,2032.00,2935.52,2750.06,3120.99,599.68,605.52,8.35,0000 0000 0000 0000 000000
2016-11-27 02:02:37,0.20,1.44,0.00,21.01,25.87,29.51,14.77,49.33,1026.40,2032.01,2931.84,2747.49,3118.06,599.82,605.68,8.40,0000 0000 0000 0000 000000
2016-11-27 02:07:38,0.21,1.45,0.00,21.01,25.87,29.49,14.84,49.48,1026.39,2032.01,2928.06,2744.77,3115.06,600.09,605.87,8.45,0000 0000 0000 0000 000000
2016-11-27 02:12:39,0.20,1.46,0.00,20.99,25.87,29.50,14.84,49.55,1026.38,2032.04,2924.53,2742.21,3112.08,599.99,605.93,8.50,0000 0000 0000 0000 000000
2016-11-27 02:17:41,0.19,1.47,0.00,21.00,25.85,29.46,14.84,49.61,1026.39,2032.01,2921.01,2739.55,3108.96,600.04,605.85,8.55,0000 0000 0000 0000 000000
2016-11-27 02:22:42,0.20,1.48,0.00,20.98,25.85,29.47,14.90,49.63,1026.39,2032.01,2917.40,2736.97,3105.95,600.31,606.17,8.60,0000 0000 0000 0000 000000
2016-11-27 02:27:43,0.19,1.49,0.00,20.98,25.83,29.47,14.85,49.60,1026.39,2032.01,2913.93,2734.41,3102.93,600.19,606.07,8.65,0000 0000 0000 0000 000000
2016-11-27 02:32:45,0.20,1.50,0.00,20.96,25.82,29.45,14.82,49.38,1026.38,2032.03,2910.33,2731.89,3100.08,599.78,605.72,8.70,0000 0000 0000 0000 000000
2016-11-27 02:37:46,0.20,1.52,0.00,20.96,25.82,29.45,14.83,48.87,1026.39,2032.02,2906.86,2729.34,3097.14,600.05,606.06,8.75,0000 0000 0000 0000 000000
2016-11-27 02:42:47,0.18,1.53,0.00,20.93,25.81,29.45,14.79,48.67,1026.39,2032.05,2903.51,2726.98,3094.45,600.04,606.04,8.80,0000 0000 0000 0000 000000
2016-11-27 02:47:49,0.20,1.53,0.00,20.90,25.80,29.45,14.79,48.73,1026.39,2032.08,2900.02,2724.50,3091.69,599.97,606.09,8.85,0000 0000 0000 0000 000000
2016-11-27 02:52:51,0.20,1.54,0.00,20.91,25.79,29.43,14.87,48.81,1026.39,2032.15,2896.60,2722.04,3088.79,600.34,606.39,8.90,0000 0000 0000 0000 000000
2016-11-27 02:57:52,0.20,1.56,0.00,20.91,25.77,29.40,14.86,48.86,1026.40,2032.24,2893.11,2719.51,3086.03,600.24,606.28,8.95,0000 0000 0000 0000 000000
2016-11-27 03:02:53,0.22,1.57,0.00,20.89,25.77,29.42,14.82,49.06,1026.40,2032.34,2889.62,2717.00,3083.15,599.80,605.87,9.00,0000 0000 0000 0000 000000
2016-11-27 03:07:54,0.20,1.58,0.00,20.88,25.75,29.40,14.88,49.36,1026.41,2032.53,2886.11,2714.47,3080.39,600.25,606.34,9.05,0000 0000 0000 0000 000000
2016-11-27 03:12:56,0.22,1.59,0.00,20.89,25.75,29.39,14.85,49.36,1026.47,2032.69,2882.64,2711.93,3077.49,600.13,606.26,9.10,0000 0000 0000 0000 000000
2016-11-27 03:17:57,0.20,1.60,0.00,20.87,25.72,29.38,14.79,49.52,1026.61,2032.87,2879.27,2709.49,3074.72,599.69,606.00,9.15,0000 0000 0000 0000 000000
2016-11-27 03:22:59,0.20,1.61,0.00,20.85,25.72,29.40,14.79,49.51,1026.54,2032.96,2876.06,2707.07,3072.01,599.71,606.02,9.20,0000 0000 0000 0000 000000
2016-11-27 03:28:00,0.20,1.62,0.00,20.83,25.71,29.36,14.85,49.56,1026.47,2032.96,2872.66,2704.51,3069.22,599.84,606.12,9.26,0000 0000 0000 0000 000000
2016-11-27 03:33:01,0.19,1.63,0.00,20.84,25.70,29.32,14.87,49.54,1026.42,2032.96,2869.38,2702.09,3066.33,600.13,606.33,9.31,0000 0000 0000 0000 000000
2016-11-27 03:38:03,0.20,1.64,0.00,20.83,25.70,29.32,14.82,49.69,1026.41,2032.97,2865.93,2699.61,3063.47,599.76,606.04,9.36,0000 0000 0000 0000 000000
2016-11-27 03:43:04,0.19,1.65,0.00,20.81,25.69,29.34,14.87,49.77,1026.42,2032.97,2862.52,2697.17,3060.65,599.91,606.13,9.41,0000 0000 0000 0000 000000
2016-11-27 03:48:05,0.18,1.66,0.00,20.79,25.67,29.34,14.94,49.78,1026.41,2032.98,2859.33,2694.81,3057.92,600.30,606.60,9.46,0000 0000 0000 0000 000000
2016-11-27 03:53:07,0.18,1.67,0.00,20.79,25.67,29.33,14.93,49.83,1026.40,2032.98,2856.16,2692.46,3055.21,600.19,606.49,9.51,0000 0000 0000 0000 000000
2016-11-27 03:58:08,0.18,1.68,0.00,20.76,25.65,29.31,14.91,49.92,1026.40,2032.98,2852.87,2690.18,3052.69,600.01,606.42,9.56,0000 0000 0000 0000 000000
2016-11-27 04:03:09,0.18,1.69,0.00,20.77,25.65,29.26,14.80,49.96,1026.43,2032.99,2849.67,2687.91,3050.09,600.15,606.49,9.61,0000 0000 0000 0000 000000
2016-11-27 04:08:11,0.17,1.70,0.00,20.74,25.62,29.28,14.86,49.90,1026.50,2032.98,2846.65,2685.78,3047.57,599.94,606.39,9.66,0000 0000 0000 0000 000000
2016-11-27 04:13:12,0.16,1.70,0.00,20.73,25.62,29.25,14.95,50.03,1026.55,2032.99,2843.77,2683.68,3045.25,600.00,606.50,9.71,0000 0000 0000 0000 000000
2016-11-27 04:18:13,0.16,1.71,0.00,20.74,25.60,29.24,14.82,49.96,1026.74,2032.99,2841.13,2681.72,3042.89,599.74,606.43,9.76,0000 0000 0000 0000 000000
2016-11-27 04:23:15,0.15,1.72,0.00,20.72,25.60,29.22,14.87,49.97,1026.83,2032.99,2838.37,2679.76,3040.63,599.94,606.61,9.81,0000 0000 0000 0000 000000
2016-11-27 04:28:16,0.16,1.73,0.00,20.72,25.58,29.21,14.88,50.10,1026.84,2032.99,2835.59,2677.71,3038.29,599.83,606.54,9.86,0000 0000 0000 0000 000000
2016-11-27 04:33:17,0.17,1.74,0.00,20.71,25.57,29.19,14.86,50.08,1026.87,2032.99,2832.79,2675.68,3035.99,599.86,606.59,9.91,0000 0000 0000 0000 000000
2016-11-27 04:38:18,0.19,1.75,0.00,20.71,25.55,29.18,14.88,49.85,1026.87,2033.00,2829.54,2673.36,3033.34,599.99,606.74,9.96,0000 0000 0000 0000 000000
2016-11-27 04:43:20,0.20,1.76,0.00,20.71,25.55,29.18,14.88,50.12,1026.87,2033.00,2826.26,2671.00,3030.64,599.85,606.64,10.01,0000 0000 0000 0000 000000
2016-11-27 04:48:21,0.18,1.77,0.00,20.68,25.54,29.18,14.84,50.06,1026.87,2033.01,2823.09,2668.61,3027.87,599.97,606.76,10.06,0000 0000 0000 0000 000000
2016-11-27 04:53:22,0.19,1.78,0.00,20.67,25.52,29.13,14.92,50.13,1026.86,2033.01,2819.88,2666.28,3025.22,599.94,606.80,10.11,0000 0000 0000 0000 000000
2016-11-27 04:58:24,0.17,1.79,0.00,20.68,25.52,29.15,14.86,50.06,1026.87,2033.02,2816.85,2664.05,3022.66,599.68,606.47,10.16,0000 0000 0000 0000 000000
2016-11-27 05:03:25,0.18,1.79,0.00,20.66,25.50,29.12,14.98,50.06,1026.87,2033.04,2814.03,2661.90,3020.21,600.13,607.12,10.21,0000 0000 0000 0000 000000
2016-11-27 05:08:26,0.17,1.80,0.00,20.63,25.50,29.13,14.89,50.06,1026.87,2033.03,2811.06,2659.70,3017.65,600.07,606.98,10.26,0000 0000 0000 0000 000000
2016-11-27 05:13:27,0.18,1.81,0.00,20.64,25.49,29.12,14.83,50.05,1026.87,2033.03,2808.08,2657.50,3015.17,599.90,606.74,10.31,0000 0000 0000 0000 000000
2016-11-27 05:18:29,0.18,1.82,0.00,20.64,25.47,29.08,14.87,50.08,1026.87,2033.03,2804.84,2655.25,3012.65,599.89,606.97,10.36,0000 0000 0000 0000 000000
2016-11-27 05:23:30,0.20,1.83,0.00,20.62,25.47,29.09,14.85,50.06,1026.87,2033.08,2801.59,2652.84,3009.98,600.15,607.16,10.41,0000 0000 0000 0000 000000
2016-11-27 05:28:32,0.18,1.84,0.00,20.61,25.45,29.08,14.86,50.08,1026.87,2033.07,2798.48,2650.45,3007.26,599.93,606.85,10.46,0000 0000 0000 0000 000000
2016-11-27 05:33:33,0.19,1.85,0.00,20.59,25.45,29.06,14.94,50.13,1026.87,2033.15,2795.40,2648.26,3004.75,600.09,607.07,10.51,0000 0000 0000 0000 000000
2016-11-27 05:38:34,0.20,1.86,0.00,20.56,25.43,29.06,14.90,49.98,1026.88,2033.21,2792.30,2646.01,3002.28,600.00,607.03,10.56,0000 0000 0000 0000 000000
2016-11-27 05:43:35,0.19,1.87,0.00,20.56,25.42,29.06,14.90,50.01,1026.89,2033.45,2789.34,2643.78,2999.73,600.33,607.36,10.61,0000 0000 0000 0000 000000
2016-11-27 05:48:37,0.17,1.88,0.00,20.58,25.41,29.04,14.85,49.99,1026.90,2033.46,2786.38,2641.61,2997.17,599.29,606.35,10.66,0000 0000 0000 0000 000000
2016-11-27 05:53:38,0.21,1.89,0.00,20.55,25.40,29.03,14.89,50.06,1026.93,2033.74,2783.32,2639.45,2994.73,600.12,607.21,10.71,0000 0000 0000 0000 000000
2016-11-27 05:58:39,0.18,1.90,0.00,20.53,25.39,29.02,14.96,50.16,1027.18,2033.79,2780.25,2637.22,2992.22,600.18,607.60,10.76,0000 0000 0000 0000 000000
2016-11-27 06:03:40,0.18,1.91,0.00,20.53,25.37,29.03,14.89,50.17,1027.30,2033.76,2777.22,2635.01,2989.63,599.91,607.24,10.81,0000 0000 0000 0000 000000
2016-11-27 06:08:42,0.18,1.92,0.00,20.52,25.37,29.01,14.85,50.02,1027.33,2033.88,2774.29,2632.82,2987.22,600.01,607.42,10.86,0000 0000 0000 0000 000000
2016-11-27 06:13:43,0.18,1.93,0.00,20.51,25.35,29.03,14.85,50.04,1027.33,2033.95,2771.34,2630.68,2984.70,599.76,607.21,10.91,0000 0000 0000 0000 000000
2016-11-27 06:18:45,0.18,1.94,0.00,20.51,25.35,29.00,14.89,50.16,1027.36,2033.97,2768.49,2628.53,2982.25,599.91,607.45,10.96,0000 0000 0000 0000 000000
2016-11-27 06:23:46,0.17,1.95,0.00,20.50,25.34,28.98,14.83,50.03,1027.36,2033.97,2765.54,2626.41,2979.84,599.48,606.94,11.01,0000 0000 0000 0000 000000
2016-11-27 06:28:47,0.16,1.96,0.00,20.48,25.32,28.93,14.88,50.18,1027.36,2033.97,2762.95,2624.40,2977.42,599.81,607.29,11.06,0000 0000 0000 0000 000000
2016-11-27 06:33:48,0.16,1.96,0.00,20.46,25.32,28.93,14.89,50.09,1027.36,2033.98,2760.07,2622.54,2975.13,600.17,607.77,11.11,0000 0000 0000 0000 000000
2016-11-27 06:38:50,0.16,1.97,0.00,20.44,25.30,28.95,14.95,49.96,1027.36,2033.97,2757.32,2620.59,2972.86,600.18,607.74,11.16,0000 0000 0000 0000 000000
2016-11-27 06:43:51,0.17,1.98,0.00,20.43,25.30,28.96,14.90,50.02,1027.36,2033.99,2754.58,2618.59,2970.52,600.05,607.66,11.21,0000 0000 0000 0000 000000
2016-11-27 06:48:52,0.16,1.99,0.00,20.42,25.28,28.92,14.90,50.08,1027.36,2033.98,2751.94,2616.52,2968.18,599.83,607.37,11.26,0000 0000 0000 0000 000000
2016-11-27 06:53:54,0.17,2.00,0.00,20.39,25.27,28.89,14.95,49.98,1027.36,2033.98,2749.21,2614.42,2965.75,599.96,607.67,11.31,0000 0000 0000 0000 000000
2016-11-27 06:58:55,0.16,2.01,0.00,20.38,25.25,28.89,14.87,50.03,1027.36,2033.99,2746.36,2612.40,2963.47,599.70,607.35,11.36,0000 0000 0000 0000 000000
2016-11-27 07:03:56,0.16,2.02,0.00,20.37,25.24,28.89,14.90,50.13,1027.36,2033.99,2743.71,2610.45,2961.20,600.05,607.70,11.41,0000 0000 0000 0000 000000
2016-11-27 07:08:58,0.16,2.02,0.00,20.36,25.22,28.85,14.91,50.11,1027.39,2033.99,2741.10,2608.49,2958.89,599.83,607.66,11.47,0000 0000 0000 0000 000000
2016-11-27 07:13:59,0.16,2.03,0.00,20.37,25.21,28.84,14.89,50.05,1027.38,2033.99,2738.40,2606.53,2956.68,600.01,607.78,11.52,0000 0000 0000 0000 000000
2016-11-27 07:19:00,0.17,2.04,0.00,20.37,25.20,28.82,14.89,50.08,1027.45,2034.00,2735.60,2604.52,2954.44,599.99,607.74,11.57,0000 0000 0000 0000 000000
2016-11-27 07:24:01,0.16,2.05,0.00,20.34,25.17,28.79,14.91,50.19,1027.47,2034.02,2732.92,2602.60,2952.22,599.56,607.40,11.62,0000 0000 0000 0000 000000
2016-11-27 07:29:03,0.17,2.06,0.00,20.35,25.17,28.79,14.86,50.03,1027.50,2034.04,2730.32,2600.69,2949.94,599.89,607.75,11.67,0000 0000 0000 0000 000000
2016-11-27 07:34:04,0.16,2.07,0.00,20.32,25.15,28.76,14.95,50.17,1027.66,2034.04,2727.75,2598.80,2947.80,600.20,608.06,11.72,0000 0000 0000 0000 000000
2016-11-27 07:39:05,0.16,2.07,0.00,20.32,25.14,28.74,14.93,50.23,1027.75,2034.06,2725.14,2596.89,2945.57,600.18,608.25,11.77,0000 0000 0000 0000 000000
2016-11-27 07:44:07,0.17,2.08,0.00,20.33,25.12,28.78,14.91,50.21,1027.78,2034.26,2722.45,2594.97,2943.57,599.86,607.89,11.82,0000 0000 0000 0000 000000
2016-11-27 07:49:08,0.19,2.09,0.00,20.33,25.11,28.74,14.89,50.15,1027.80,2034.46,2719.93,2593.09,2941.34,599.99,608.04,11.87,0000 0000 0000 0000 000000
2016-11-27 07:54:09,0.19,2.10,0.00,20.32,25.10,28.73,14.86,50.11,1027.81,2034.73,2717.27,2591.15,2939.16,600.17,608.43,11.92,0000 0000 0000 0000 000000
2016-11-27 07:59:10,0.17,2.11,0.00,20.29,25.08,28.72,14.92,50.16,1027.83,2034.73,2714.60,2589.19,2936.87,599.90,608.04,11.97,0000 0000 0000 0000 000000
2016-11-27 08:04:11,0.16,2.12,0.00,20.26,25.07,28.69,14.93,50.10,1027.83,2034.85,2711.99,2587.26,2934.64,600.07,608.30,12.02,0000 0000 0000 0000 000000
2016-11-27 08:09:12,0.18,2.13,0.00,20.27,25.06,28.70,14.91,50.16,1027.81,2034.90,2709.25,2585.26,2932.38,599.83,608.03,12.07,0000 0000 0000 0000 000000
2016-11-27 08:14:13,0.17,2.14,0.00,20.29,25.05,28.70,14.93,50.20,1027.82,2034.96,2706.41,2583.25,2930.11,600.24,608.42,12.12,0000 0000 0000 0000 000000
2016-11-27 08:19:15,0.17,2.15,0.00,20.25,25.03,28.70,14.90,50.18,1027.77,2034.97,2703.63,2581.22,2927.94,599.83,608.08,12.17,0000 0000 0000 0000 000000
2016-11-27 08:24:16,0.17,2.16,0.00,20.26,25.02,28.69,14.91,50.24,1027.71,2034.99,2700.94,2579.26,2925.58,599.88,608.05,12.22,0000 0000 0000 0000 000000
2016-11-27 08:29:17,0.17,2.16,0.00,20.23,25.01,28.68,14.87,50.20,1027.70,2034.98,2698.23,2577.21,2923.24,599.88,608.11,12.27,0000 0000 0000 0000 000000
2016-11-27 08:34:18,0.16,2.17,0.00,20.21,25.00,28.69,14.91,50.24,1027.72,2034.99,2695.56,2575.22,2920.98,600.05,608.31,12.32,0000 0000 0000 0000 000000
2016-11-27 08:39:20,0.16,2.18,0.00,20.23,24.99,28.66,14.90,50.21,1027.78,2034.99,2693.06,2573.43,2918.81,600.17,608.42,12.37,0000 0000 0000 0000 000000
2016-11-27 08:44:21,0.15,2.19,0.00,20.22,24.97,28.64,14.99,50.37,1027.84,2034.99,2690.60,2571.60,2916.70,600.40,608.72,12.42,0000 0000 0000 0000 000000
2016-11-27 08:49:22,0.17,2.20,0.00,20.23,24.97,28.62,14.95,50.38,1027.85,2034.99,2688.03,2569.69,2914.58,600.25,608.55,12.47,0000 0000 0000 0000 000000
2016-11-27 08:54:23,0.15,2.21,0.00,20.23,24.96,28.61,14.88,50.32,1027.85,2034.99,2685.48,2567.85,2912.52,599.91,608.34,12.52,0000 0000 0000 0000 000000
2016-11-27 08:59:25,0.16,2.21,0.00,20.21,24.95,28.59,14.86,50.17,1027.85,2034.99,2682.91,2565.93,2910.29,599.74,608.09,12.57,0000 0000 0000 0000 000000
2016-11-27 09:04:26,0.15,2.22,0.00,20.18,24.94,28.62,14.89,50.24,1027.85,2034.99,2680.54,2564.11,2908.13,599.64,608.12,12.62,0000 0000 0000 0000 000000
2016-11-27 09:09:27,0.16,2.23,0.00,20.18,24.92,28.59,14.89,50.23,1027.85,2035.00,2677.95,2562.28,2906.03,599.83,608.23,12.67,0000 0000 0000 0000 000000
2016-11-27 09:14:28,0.16,2.24,0.00,20.17,24.92,28.57,14.92,50.30,1027.87,2035.01,2675.33,2560.44,2903.98,600.08,608.49,12.72,0000 0000 0000 0000 000000
2016-11-27 09:19:30,0.15,2.25,0.00,20.17,24.90,28.58,14.93,50.29,1028.03,2035.01,2672.75,2558.70,2901.87,600.07,608.53,12.77,0000 0000 0000 0000 000000
2016-11-27 09:24:31,0.16,2.25,0.00,20.17,24.90,28.57,14.94,50.25,1028.23,2035.02,2670.27,2556.93,2899.76,599.91,608.58,12.82,0000 0000 0000 0000 000000
2016-11-27 09:29:32,0.16,2.26,0.00,20.17,24.89,28.58,14.97,50.31,1028.29,2035.03,2667.84,2555.10,2897.50,600.33,609.02,12.87,0000 0000 0000 0000 000000
2016-11-27 09:34:34,0.17,2.27,0.00,20.15,24.87,28.54,14.97,50.42,1028.31,2035.04,2665.19,2553.17,2895.32,599.70,608.46,12.92,0000 0000 0000 0000 000000
2016-11-27 09:39:35,0.17,2.28,0.00,20.14,24.87,28.54,14.93,50.39,1028.32,2035.05,2662.48,2551.19,2893.15,599.85,608.71,12.97,0000 0000 0000 0000 000000
2016-11-27 09:44:36,0.18,2.29,0.00,20.13,24.87,28.52,14.96,50.35,1028.33,2035.08,2659.83,2549.20,2890.93,599.91,608.70,13.02,0000 0000 0000 0000 000000
2016-11-27 09:49:37,0.17,2.30,0.00,20.11,24.87,28.51,14.95,50.30,1028.28,2035.06,2657.15,2547.18,2888.62,600.16,609.07,13.07,0000 0000 0000 0000 000000
2016-11-27 09:54:39,0.17,2.31,0.00,20.12,24.85,28.51,14.97,50.41,1028.20,2035.20,2654.70,2545.35,2886.34,600.50,609.15,13.12,0000 0000 0000 0000 000000
2016-11-27 09:59:40,0.17,2.31,0.00,20.10,24.85,28.51,14.91,50.44,1028.10,2035.25,2652.26,2543.54,2884.20,599.94,608.81,13.17,0000 0000 0000 0000 000000
2016-11-27 10:04:41,0.14,2.32,0.00,20.08,24.84,28.52,14.98,50.53,1028.12,2035.12,2649.69,2541.64,2882.09,600.13,608.91,13.22,0000 0000 0000 0000 000000
2016-11-27 10:09:42,0.19,2.33,0.00,20.07,24.82,28.53,14.94,50.51,1028.27,2035.30,2647.26,2539.85,2880.10,599.94,608.86,13.27,0000 0000 0000 0000 000000
2016-11-27 10:14:43,0.15,2.34,0.00,20.06,24.82,28.48,15.03,50.40,1028.24,2035.32,2644.68,2538.00,2878.15,600.25,609.08,13.32,0000 0000 0000 0000 000000
2016-11-27 10:19:45,0.17,2.35,0.00,20.06,24.81,28.47,14.96,50.38,1028.25,2035.45,2642.11,2536.19,2876.14,600.15,609.12,13.37,0000 0000 0000 0000 000000
2016-11-27 10:24:46,0.18,2.36,0.00,20.04,24.80,28.48,14.96,50.37,1028.28,2035.69,2639.60,2534.37,2874.02,599.87,608.81,13.42,0000 0000 0000 0000 000000
2016-11-27 10:29:47,0.18,2.37,0.00,20.04,24.79,28.48,14.99,50.36,1028.27,2035.80,2637.07,2532.50,2871.97,600.42,609.34,13.47,0000 0000 0000 0000 000000
2016-11-27 10:34:48,0.17,2.38,0.00,20.04,24.78,28.46,14.95,50.35,1028.27,2035.88,2634.59,2530.66,2869.85,600.04,608.93,13.52,0000 0000 0000 0000 000000
2016-11-27 10:39:50,0.16,2.38,0.00,20.03,24.77,28.44,14.97,50.32,1028.21,2035.92,2632.24,2528.83,2867.70,600.18,609.11,13.57,0000 0000 0000 0000 000000
2016-11-27 10:44:52,0.16,2.39,0.00,20.02,24.76,28.41,14.93,50.37,1028.31,2035.91,2629.81,2527.05,2865.62,599.56,608.59,13.62,0000 0000 0000 0000 000000
2016-11-27 10:49:53,0.15,2.40,0.00,19.98,24.75,28.44,14.92,50.43,1028.32,2035.96,2627.42,2525.31,2863.66,600.01,609.05,13.67,0000 0000 0000 0000 000000
2016-11-27 10:54:55,0.16,2.41,0.00,19.99,24.75,28.42,14.93,50.33,1028.32,2035.97,2624.95,2523.46,2861.56,600.32,609.40,13.72,0000 0000 0000 0000 000000
2016-11-27 10:59:56,0.15,2.42,0.00,20.01,24.73,28.41,14.94,50.44,1028.31,2035.98,2622.66,2521.71,2859.61,599.94,608.93,13.77,0000 0000 0000 0000 000000
2016-11-27 11:04:58,0.15,2.43,0.00,19.99,24.72,28.41,14.92,50.37,1028.30,2035.99,2620.38,2519.93,2857.57,599.97,608.92,13.82,0000 0000 0000 0000 000000
2016-11-27 11:09:59,0.16,2.43,0.00,19.96,24.72,28.40,14.88,50.35,1028.32,2035.98,2618.03,2518.16,2855.42,599.99,609.08,13.87,0000 0000 0000 0000 000000
2016-11-27 11:15:00,0.16,2.44,0.00,19.95,24.71,28.40,14.94,50.48,1028.33,2035.98,2615.48,2516.33,2853.42,600.26,609.39,13.92,0000 0000 0000 0000 000000
2016-11-27 11:20:01,0.17,2.45,0.00,19.95,24.70,28.37,14.92,50.51,1028.32,2035.99,2612.78,2514.40,2851.26,599.92,609.12,13.98,0000 0000 0000 0000 000000
2016-11-27 11:25:03,0.18,2.46,0.00,19.93,24.70,28.36,15.00,50.50,1028.33,2035.99,2610.10,2512.43,2848.99,600.48,609.72,14.03,0000 0000 0000 0000 000000
2016-11-27 11:30:04,0.18,2.47,0.00,19.95,24.70,28.37,14.91,50.53,1028.33,2035.99,2607.42,2510.37,2846.58,599.84,609.11,14.08,0000 0000 0000 0000 000000
2016-11-27 11:35:06,0.18,2.48,0.00,19.94,24.69,28.37,14.97,50.68,1028.33,2035.99,2604.61,2508.27,2844.18,600.47,609.66,14.13,0000 0000 0000 0000 000000
2016-11-27 11:40:07,0.17,2.49,0.00,19.93,24.68,28.35,14.92,50.56,1028.33,2035.99,2602.03,2506.32,2841.96,599.81,609.03,14.18,0000 0000 0000 0000 000000
2016-11-27 11:45:08,0.18,2.50,0.00,19.93,24.67,28.36,14.93,50.56,1028.33,2035.99,2599.30,2504.30,2839.67,600.13,609.37,14.23,0000 0000 0000 0000 000000
2016-11-27 11:50:09,0.16,2.51,0.00,19.93,24.67,28.36,14.93,50.58,1028.33,2035.99,2596.69,2502.35,2837.39,600.11,609.42,14.28,0000 0000 0000 0000 000000
2016-11-27 11:55:11,0.17,2.51,0.00,19.90,24.67,28.34,14.99,50.64,1028.33,2035.99,2594.28,2500.53,2835.24,600.19,609.44,14.33,0000 0000 0000 0000 000000
2016-11-27 12:00:12,0.16,2.52,0.00,19.91,24.66,28.33,14.96,50.69,1028.33,2035.99,2591.87,2498.72,2833.20,600.07,609.37,14.38,0000 0000 0000 0000 000000
2016-11-27 12:05:14,0.15,2.53,0.00,19.90,24.65,28.33,14.98,50.64,1028.33,2035.99,2589.51,2496.95,2831.06,600.08,609.38,14.43,0000 0000 0000 0000 000000
2016-11-27 12:10:15,0.16,2.54,0.00,19.88,24.65,28.31,14.95,50.63,1028.34,2035.99,2587.04,2495.25,2829.04,599.68,609.01,14.48,0000 0000 0000 0000 000000
2016-11-27 12:15:17,0.16,2.55,0.00,19.89,24.63,28.31,14.98,50.58,1028.35,2035.99,2584.48,2493.48,2826.92,600.31,609.59,14.53,0000 0000 0000 0000 000000
2016-11-27 12:20:18,0.17,2.56,0.00,19.88,24.62,28.31,14.93,50.64,1028.34,2035.99,2581.92,2491.64,2824.84,599.83,609.32,14.58,0000 0000 0000 0000 000000
2016-11-27 12:25:19,0.17,2.56,0.00,19.86,24.62,28.30,15.02,50.73,1028.35,2036.00,2579.44,2489.78,2822.75,600.04,609.34,14.63,0000 0000 0000 0000 000000
2016-11-27 12:30:21,0.17,2.57,0.00,19.86,24.60,28.25,14.99,50.73,1028.35,2036.02,2576.95,2487.94,2820.63,599.82,609.18,14.68,0000 0000 0000 0000 000000
2016-11-27 12:35:22,0.16,2.58,0.00,19.87,24.60,28.28,15.00,50.67,1028.34,2036.03,2574.59,2486.14,2818.54,600.24,609.48,14.73,0000 0000 0000 0000 000000
2016-11-27 12:40:24,0.17,2.59,0.00,19.86,24.59,28.29,14.98,50.61,1028.34,2036.04,2572.10,2484.35,2816.46,600.29,609.59,14.78,0000 0000 0000 0000 000000
2016-11-27 12:45:25,0.18,2.60,0.00,19.86,24.57,28.25,15.03,50.58,1028.35,2036.06,2569.47,2482.46,2814.44,600.03,609.32,14.83,0000 0000 0000 0000 000000
2016-11-27 12:50:26,0.17,2.61,0.00,19.83,24.57,28.27,14.98,50.62,1028.35,2036.08,2567.11,2480.60,2812.26,600.15,609.59,14.88,0000 0000 0000 0000 000000
2016-11-27 12:55:27,0.19,2.62,0.00,19.85,24.56,28.28,14.96,50.52,1028.34,2036.30,2564.57,2478.81,2810.23,599.80,609.25,14.93,0000 0000 0000 0000 000000